RYR125 LEPA-EDJA

Flight info

Callsign RYR125
Flight time 1h 35m
Altitude 34000
Route MEROS5A MEROS N853 LUMAS DCT NEVIX DCT ODIXU DCT ADITA DCT RAPED DCT PIGOS DCT EKSID DCT NOSTA DCT NOPMU DCT ASTIG DCT ABESI N851 UTAVO DCT SOPER N851 KUDIS T103 NUNRI Z6 ALG DCT
Aircraft B738/M-SDE2E3FGHIRWXY/LB1

Departure

Time 2026-04-30 19:49
Airport Palma de Mallorca Airport (LEPA)

Arrival

Time 2026-04-30 21:24
Airport Memmingen Allgau Airport (EDJA)
Time Latitude Longitude Altitude Speed Heading
2026-04-30 19:11 39.55003 2.73728 10 ft 0 kts 239°
2026-04-30 19:37 39.55007 2.73737 37 ft 2 kts 239°
2026-04-30 19:37 39.55018 2.73759 36 ft 2 kts 236°
2026-04-30 19:38 39.55030 2.73781 36 ft 3 kts 231°
2026-04-30 19:38 39.55043 2.73801 35 ft 2 kts 224°
2026-04-30 19:38 39.55058 2.73817 36 ft 3 kts 204°
2026-04-30 19:38 39.55069 2.73822 37 ft 2 kts 175°
2026-04-30 19:39 39.55078 2.73820 33 ft 0 kts 149°
2026-04-30 19:42 39.55071 2.73826 37 ft 7 kts 150°
2026-04-30 19:42 39.55003 2.73879 37 ft 14 kts 148°
2026-04-30 19:43 39.54912 2.73951 37 ft 17 kts 149°
2026-04-30 19:43 39.54822 2.73988 37 ft 12 kts 203°
2026-04-30 19:43 39.54747 2.73954 37 ft 13 kts 171°
2026-04-30 19:44 39.54609 2.73748 37 ft 19 kts 238°
2026-04-30 19:44 39.54532 2.73590 37 ft 22 kts 235°
2026-04-30 19:44 39.54450 2.73405 37 ft 24 kts 239°
2026-04-30 19:44 39.54381 2.73260 37 ft 16 kts 238°
2026-04-30 19:45 39.54337 2.73171 36 ft 9 kts 237°
2026-04-30 19:45 39.54296 2.73088 37 ft 7 kts 238°
2026-04-30 19:45 39.54266 2.73045 37 ft 4 kts 204°
2026-04-30 19:45 39.54257 2.73029 37 ft 5 kts 245°
2026-04-30 19:46 39.54211 2.72924 37 ft 15 kts 210°
2026-04-30 19:46 39.54152 2.73001 37 ft 14 kts 86°
2026-04-30 19:46 39.54152 2.73127 37 ft 12 kts 90°
2026-04-30 19:46 39.54156 2.73228 37 ft 11 kts 70°
2026-04-30 19:47 39.54177 2.73276 37 ft 0 kts 59°
2026-04-30 19:48 39.54224 2.73376 37 ft 41 kts 58°
2026-04-30 19:48 39.54487 2.73935 37 ft 102 kts 58°
2026-04-30 19:48 39.54948 2.74913 38 ft 151 kts 59°
2026-04-30 19:49 39.55555 2.76168 326 ft 168 kts 57°
2026-04-30 19:49 39.56848 2.78849 1392 ft 184 kts 60°
2026-04-30 19:49 39.57488 2.80306 1997 ft 188 kts 61°
2026-04-30 19:50 39.58139 2.81775 2606 ft 185 kts 60°
2026-04-30 19:50 39.58826 2.83304 2867 ft 208 kts 60°
2026-04-30 19:50 39.59595 2.84999 3082 ft 228 kts 59°
2026-04-30 19:50 39.60435 2.86835 3304 ft 249 kts 59°
2026-04-30 19:51 39.61349 2.88828 3789 ft 261 kts 58°
2026-04-30 19:51 39.62282 2.90868 4510 ft 267 kts 58°
2026-04-30 19:51 39.63222 2.92974 5194 ft 273 kts 59°
2026-04-30 19:51 39.64177 2.95127 5896 ft 277 kts 59°
2026-04-30 19:52 39.65138 2.97296 6572 ft 283 kts 59°
2026-04-30 19:52 39.66128 2.99522 7242 ft 286 kts 59°
2026-04-30 19:52 39.67137 3.01777 7915 ft 290 kts 59°
2026-04-30 19:52 39.68167 3.04074 8569 ft 296 kts 59°
2026-04-30 19:53 39.69212 3.06406 9145 ft 304 kts 59°
2026-04-30 19:53 39.70294 3.08818 9732 ft 311 kts 59°
2026-04-30 19:53 39.71364 3.11230 10367 ft 315 kts 59°
2026-04-30 19:53 39.72471 3.13800 10577 ft 336 kts 60°
2026-04-30 19:54 39.73624 3.16550 10744 ft 357 kts 61°
2026-04-30 19:54 39.74827 3.19477 10895 ft 376 kts 62°
2026-04-30 19:54 39.76073 3.22560 11034 ft 394 kts 62°
2026-04-30 19:54 39.77347 3.25770 11424 ft 402 kts 61°
2026-04-30 19:55 39.78921 3.28796 11921 ft 406 kts 49°
2026-04-30 19:55 39.80784 3.31574 12502 ft 408 kts 47°
2026-04-30 19:55 39.82704 3.34327 13068 ft 412 kts 46°
2026-04-30 19:55 39.84640 3.37105 13626 ft 415 kts 47°
2026-04-30 19:56 39.86559 3.39891 14158 ft 419 kts 47°
2026-04-30 19:56 39.88502 3.42751 14680 ft 422 kts 47°
2026-04-30 19:56 39.90440 3.45636 15245 ft 425 kts 47°
2026-04-30 19:56 39.92393 3.48566 15800 ft 428 kts 47°
2026-04-30 19:57 39.94351 3.51516 16344 ft 431 kts 47°
2026-04-30 19:57 39.96322 3.54492 16873 ft 435 kts 47°
2026-04-30 19:57 39.98304 3.57491 17386 ft 439 kts 47°
2026-04-30 19:57 40.00304 3.60519 17838 ft 443 kts 47°
2026-04-30 19:58 40.02326 3.63583 18364 ft 446 kts 47°
2026-04-30 19:58 40.04357 3.66663 18793 ft 449 kts 47°
2026-04-30 19:58 40.06378 3.69730 19377 ft 449 kts 49°
2026-04-30 19:58 40.08436 3.72855 19379 ft 458 kts 47°
2026-04-30 19:59 40.10524 3.76030 19825 ft 459 kts 47°
2026-04-30 19:59 40.12601 3.79195 20383 ft 459 kts 47°
2026-04-30 19:59 40.16782 3.85571 21234 ft 464 kts 47°
2026-04-30 20:00 40.18893 3.88794 21619 ft 468 kts 47°
2026-04-30 20:00 40.21012 3.92032 22006 ft 470 kts 47°
2026-04-30 20:00 40.23146 3.95298 22394 ft 473 kts 47°
2026-04-30 20:00 40.25288 3.98578 22771 ft 476 kts 47°
2026-04-30 20:01 40.29590 4.05180 23472 ft 481 kts 47°
2026-04-30 20:01 40.31768 4.08529 23805 ft 483 kts 47°
2026-04-30 20:01 40.33954 4.11891 24097 ft 486 kts 47°
2026-04-30 20:02 40.38332 4.18640 24676 ft 490 kts 47°
2026-04-30 20:02 40.40542 4.22052 24956 ft 493 kts 47°
2026-04-30 20:03 40.45002 4.28948 25486 ft 497 kts 47°
2026-04-30 20:03 40.47249 4.32422 25760 ft 499 kts 46°
2026-04-30 20:03 40.49801 4.35467 25968 ft 495 kts 29°
2026-04-30 20:03 40.52869 4.37428 26240 ft 488 kts 14°
2026-04-30 20:04 40.56155 4.38389 26548 ft 483 kts
2026-04-30 20:04 40.59474 4.39109 26880 ft 483 kts
2026-04-30 20:04 40.62787 4.39817 27241 ft 482 kts
2026-04-30 20:05 40.69410 4.41306 28027 ft 481 kts
2026-04-30 20:05 40.72703 4.42081 28393 ft 480 kts
2026-04-30 20:05 40.79279 4.43653 29142 ft 480 kts
2026-04-30 20:06 40.82561 4.44441 29553 ft 479 kts
2026-04-30 20:06 40.85830 4.45223 30002 ft 477 kts
2026-04-30 20:06 40.89048 4.45992 30387 ft 475 kts
2026-04-30 20:06 40.92295 4.46775 30692 ft 475 kts
2026-04-30 20:07 40.95561 4.47572 30969 ft 475 kts
2026-04-30 20:07 40.98813 4.48369 31272 ft 475 kts
2026-04-30 20:07 41.05300 4.49961 31963 ft 473 kts
2026-04-30 20:08 41.08536 4.50753 32113 ft 475 kts
2026-04-30 20:08 41.15058 4.52343 32110 ft 475 kts
2026-04-30 20:09 41.21514 4.53923 32112 ft 470 kts
2026-04-30 20:09 41.31108 4.56273 32126 ft 469 kts
2026-04-30 20:10 41.40746 4.58642 32126 ft 468 kts
2026-04-30 20:11 41.50338 4.61007 32138 ft 467 kts
2026-04-30 20:11 41.56733 4.62588 32129 ft 466 kts
2026-04-30 20:12 41.66255 4.64949 32131 ft 465 kts
2026-04-30 20:13 41.72621 4.66568 32138 ft 466 kts
2026-04-30 20:13 41.78768 4.69618 32144 ft 474 kts 18°
2026-04-30 20:14 41.84815 4.73218 32130 ft 474 kts 18°
2026-04-30 20:14 41.90848 4.76777 32157 ft 473 kts 18°
2026-04-30 20:15 41.96862 4.80267 32138 ft 473 kts 18°
2026-04-30 20:15 42.02922 4.83768 32151 ft 473 kts 18°
2026-04-30 20:16 42.08968 4.87269 32156 ft 473 kts 18°
2026-04-30 20:16 42.15020 4.90784 32156 ft 473 kts 18°
2026-04-30 20:17 42.21061 4.94302 32156 ft 472 kts 18°
2026-04-30 20:17 42.27060 4.97802 32164 ft 471 kts 18°
2026-04-30 20:18 42.33067 5.01314 32169 ft 471 kts 18°
2026-04-30 20:18 42.39076 5.04834 32162 ft 470 kts 18°
2026-04-30 20:19 42.44974 5.08695 32171 ft 472 kts 23°
2026-04-30 20:19 42.50705 5.13061 32188 ft 472 kts 25°
2026-04-30 20:20 42.56425 5.17460 32173 ft 472 kts 25°
2026-04-30 20:20 42.62116 5.21786 32171 ft 471 kts 24°
2026-04-30 20:21 42.67836 5.26111 32174 ft 470 kts 24°
2026-04-30 20:21 42.73560 5.30445 32174 ft 470 kts 24°
2026-04-30 20:22 42.79282 5.34788 32181 ft 470 kts 25°
2026-04-30 20:22 42.84993 5.39133 32173 ft 470 kts 25°
2026-04-30 20:23 42.90701 5.43487 32194 ft 470 kts 25°
2026-04-30 20:23 42.96410 5.47850 32177 ft 469 kts 25°
2026-04-30 20:24 43.01144 5.51476 32176 ft 469 kts 25°
2026-04-30 20:24 43.06820 5.55853 32178 ft 469 kts 28°
2026-04-30 20:24 43.10276 5.59472 32187 ft 475 kts 40°
2026-04-30 20:25 43.13837 5.65333 32193 ft 480 kts 52°
2026-04-30 20:26 43.19548 5.76539 32188 ft 480 kts 51°
2026-04-30 20:26 43.22889 5.84482 32187 ft 485 kts 66°
2026-04-30 20:26 43.23889 5.88923 32180 ft 489 kts 76°
2026-04-30 20:27 43.26320 6.07278 32186 ft 488 kts 77°
2026-04-30 20:28 43.28787 6.25530 32189 ft 487 kts 77°
2026-04-30 20:30 43.31886 6.48379 32201 ft 486 kts 77°
2026-04-30 20:31 43.35530 6.75788 32186 ft 486 kts 78°
2026-04-30 20:32 43.37831 6.89215 32189 ft 480 kts 64°
2026-04-30 20:32 43.41196 6.97044 32201 ft 474 kts 50°
2026-04-30 20:33 43.47064 7.07994 32179 ft 474 kts 51°
2026-04-30 20:34 43.52842 7.19034 32185 ft 473 kts 51°
2026-04-30 20:35 43.58557 7.30056 32183 ft 472 kts 51°
2026-04-30 20:35 43.64283 7.41124 32187 ft 472 kts 52°
2026-04-30 20:36 43.68094 7.48506 32188 ft 471 kts 52°
2026-04-30 20:37 43.73787 7.59568 32217 ft 470 kts 51°
2026-04-30 20:37 43.77536 7.66892 32208 ft 469 kts 52°
2026-04-30 20:38 43.81334 7.74231 32217 ft 467 kts 47°
2026-04-30 20:38 43.86099 7.80186 32231 ft 459 kts 33°
2026-04-30 20:39 43.93796 7.88117 32224 ft 458 kts 28°
2026-04-30 20:40 44.02559 7.92794 32249 ft 449 kts 12°
2026-04-30 20:40 44.08590 7.95046 32247 ft 448 kts 12°
2026-04-30 20:41 44.17572 7.98491 32274 ft 447 kts 13°
2026-04-30 20:41 44.23554 8.00838 32271 ft 446 kts 13°
2026-04-30 20:42 44.29507 8.03186 32298 ft 444 kts 13°
2026-04-30 20:43 44.38415 8.06706 32279 ft 442 kts 13°
2026-04-30 20:43 44.44281 8.09030 32304 ft 441 kts 13°
2026-04-30 20:44 44.53146 8.12550 32306 ft 439 kts 13°
2026-04-30 20:45 44.64886 8.17228 32293 ft 441 kts 13°
2026-04-30 20:45 44.70797 8.19591 32291 ft 442 kts 14°
2026-04-30 20:46 44.82652 8.24346 32279 ft 444 kts 14°
2026-04-30 20:47 44.91576 8.27939 32287 ft 444 kts 14°
2026-04-30 20:48 45.00288 8.32465 32272 ft 446 kts 22°
2026-04-30 20:48 45.05921 8.35994 32276 ft 445 kts 22°
2026-04-30 20:49 45.11601 8.39519 32280 ft 444 kts 22°
2026-04-30 20:50 45.20109 8.44722 32298 ft 443 kts 21°
2026-04-30 20:50 45.25756 8.48167 32312 ft 441 kts 21°
2026-04-30 20:51 45.31394 8.51614 32323 ft 440 kts 22°
2026-04-30 20:51 45.39800 8.56772 32328 ft 436 kts 22°
2026-04-30 20:52 45.45326 8.60170 32288 ft 434 kts 22°
2026-04-30 20:53 45.53607 8.65277 32289 ft 430 kts 22°
2026-04-30 20:53 45.59092 8.68669 32294 ft 429 kts 22°
2026-04-30 20:54 45.67272 8.73740 32296 ft 428 kts 23°
2026-04-30 20:55 45.75497 8.78857 32316 ft 429 kts 23°
2026-04-30 20:55 45.80981 8.82278 32317 ft 430 kts 23°
2026-04-30 20:56 45.89223 8.87433 32322 ft 431 kts 24°
2026-04-30 20:57 45.97478 8.92613 32321 ft 431 kts 24°
2026-04-30 20:57 46.02931 8.96044 32325 ft 430 kts 24°
2026-04-30 20:58 46.11137 9.01219 32305 ft 427 kts 24°
2026-04-30 20:58 46.16850 9.03515 32335 ft 429 kts
2026-04-30 20:59 46.22832 9.03518 32332 ft 432 kts 358°
2026-04-30 20:59 46.25824 9.03072 32305 ft 432 kts 356°
2026-04-30 21:00 46.37742 9.01354 32328 ft 432 kts 358°
2026-04-30 21:01 46.46746 9.00141 32298 ft 433 kts 358°
2026-04-30 21:02 46.55793 8.98915 32276 ft 436 kts 358°
2026-04-30 21:02 46.61829 8.98096 32289 ft 436 kts 358°
2026-04-30 21:03 46.67875 8.97274 32276 ft 437 kts 358°
2026-04-30 21:03 46.73920 8.96450 32244 ft 435 kts 358°
2026-04-30 21:04 46.79918 8.95630 32245 ft 435 kts 358°
2026-04-30 21:04 46.89061 8.94379 30802 ft 442 kts 358°
2026-04-30 21:05 46.92124 8.93964 30044 ft 442 kts 359°
2026-04-30 21:05 46.95184 8.93555 29197 ft 442 kts 358°
2026-04-30 21:05 46.98250 8.93146 28357 ft 441 kts 358°
2026-04-30 21:05 47.01312 8.92737 27488 ft 442 kts 358°
2026-04-30 21:06 47.04389 8.92325 26603 ft 442 kts 358°
2026-04-30 21:06 47.07461 8.91913 25795 ft 442 kts 357°
2026-04-30 21:06 47.10510 8.91501 25176 ft 438 kts 357°
2026-04-30 21:06 47.13528 8.91092 24566 ft 433 kts 357°
2026-04-30 21:07 47.16519 8.90686 23903 ft 430 kts 357°
2026-04-30 21:07 47.19475 8.90269 22932 ft 433 kts 357°
2026-04-30 21:07 47.22460 8.89839 22224 ft 429 kts 357°
2026-04-30 21:07 47.25411 8.89418 21562 ft 424 kts 358°
2026-04-30 21:08 47.28331 8.89411 20931 ft 416 kts
2026-04-30 21:08 47.31169 8.90048 20316 ft 409 kts 15°
2026-04-30 21:08 47.33866 8.91295 19701 ft 404 kts 22°
2026-04-30 21:08 47.36495 8.92725 19104 ft 400 kts 22°
2026-04-30 21:09 47.39106 8.94110 18493 ft 397 kts 21°
2026-04-30 21:09 47.40818 8.95039 18049 ft 395 kts 25°
2026-04-30 21:09 47.43906 8.97834 17230 ft 386 kts 41°
2026-04-30 21:09 47.45810 9.00600 16576 ft 383 kts 51°
2026-04-30 21:10 47.46853 9.02695 16181 ft 380 kts 57°
2026-04-30 21:10 47.48757 9.07017 15395 ft 376 kts 57°
2026-04-30 21:10 47.49712 9.09219 15003 ft 375 kts 58°
2026-04-30 21:10 47.51112 9.12448 14432 ft 373 kts 58°
2026-04-30 21:11 47.52481 9.15600 13856 ft 371 kts 58°
2026-04-30 21:11 47.53879 9.18806 13231 ft 369 kts 58°
2026-04-30 21:11 47.55268 9.21984 12639 ft 366 kts 57°
2026-04-30 21:11 47.56666 9.25178 12055 ft 364 kts 57°
2026-04-30 21:12 47.58020 9.28271 11576 ft 360 kts 57°
2026-04-30 21:12 47.59353 9.31315 11451 ft 346 kts 57°
2026-04-30 21:12 47.60643 9.34263 11295 ft 337 kts 57°
2026-04-30 21:12 47.61906 9.37152 11153 ft 330 kts 57°
2026-04-30 21:13 47.63142 9.39982 11031 ft 324 kts 58°
2026-04-30 21:13 47.64348 9.42746 10896 ft 313 kts 58°
2026-04-30 21:13 47.65512 9.45417 10749 ft 304 kts 57°
2026-04-30 21:13 47.66640 9.48008 10645 ft 294 kts 58°
2026-04-30 21:14 47.67735 9.50525 10516 ft 286 kts 57°
2026-04-30 21:14 47.68794 9.52963 10398 ft 278 kts 58°
2026-04-30 21:14 47.69803 9.55286 10161 ft 270 kts 57°
2026-04-30 21:14 47.70813 9.57617 9968 ft 270 kts 57°
2026-04-30 21:15 47.71839 9.59982 9690 ft 268 kts 58°
2026-04-30 21:15 47.72830 9.62272 9434 ft 266 kts 58°
2026-04-30 21:15 47.73811 9.64538 9155 ft 264 kts 58°
2026-04-30 21:15 47.74801 9.66830 8875 ft 263 kts 58°
2026-04-30 21:16 47.75785 9.69106 8608 ft 261 kts 58°
2026-04-30 21:16 47.76761 9.71368 8339 ft 259 kts 58°
2026-04-30 21:16 47.77732 9.73621 8065 ft 259 kts 58°
2026-04-30 21:16 47.78703 9.75875 7795 ft 258 kts 59°
2026-04-30 21:17 47.79668 9.78116 7523 ft 257 kts 58°
2026-04-30 21:17 47.80635 9.80364 7233 ft 257 kts 59°
2026-04-30 21:17 47.81595 9.82594 6997 ft 256 kts 60°
2026-04-30 21:17 47.82541 9.84799 6744 ft 254 kts 59°
2026-04-30 21:18 47.83500 9.87034 6558 ft 250 kts 59°
2026-04-30 21:18 47.84411 9.89155 6454 ft 243 kts 60°
2026-04-30 21:18 47.85309 9.91251 6340 ft 236 kts 60°
2026-04-30 21:18 47.85653 9.92054 6295 ft 233 kts 60°
2026-04-30 21:19 47.86389 9.93774 6205 ft 227 kts 60°
2026-04-30 21:19 47.87227 9.95735 6120 ft 220 kts 60°
2026-04-30 21:20 47.88048 9.97655 5914 ft 218 kts 60°
2026-04-30 21:20 47.88856 9.99546 5679 ft 216 kts 61°
2026-04-30 21:20 47.89682 10.01487 5225 ft 226 kts 60°
2026-04-30 21:20 47.90524 10.03459 4913 ft 223 kts 60°
2026-04-30 21:21 47.91337 10.05363 4659 ft 211 kts 62°
2026-04-30 21:21 47.92105 10.07149 4412 ft 198 kts 61°
2026-04-30 21:21 47.93506 10.10329 4031 ft 171 kts 65°
2026-04-30 21:22 47.94086 10.11792 3819 ft 155 kts 65°
2026-04-30 21:22 47.95503 10.15390 3287 ft 122 kts 66°
2026-04-30 21:23 47.95938 10.16495 3120 ft 126 kts 65°
2026-04-30 21:23 47.96402 10.17649 2906 ft 135 kts 60°
2026-04-30 21:23 47.97354 10.20117 2521 ft 138 kts 62°
2026-04-30 21:24 47.97843 10.21319 2279 ft 136 kts 61°
2026-04-30 21:24 47.98321 10.22540 2128 ft 135 kts 59°
2026-04-30 21:24 47.98774 10.23681 2074 ft 114 kts 60°
2026-04-30 21:24 47.99031 10.24339 2067 ft 46 kts 60°
2026-04-30 21:25 47.99096 10.24510 2067 ft 0 kts 63°
2026-04-30 21:26 47.99103 10.24533 2067 ft 2 kts 39°
2026-04-30 21:26 47.99112 10.24524 2067 ft 2 kts 301°
2026-04-30 21:27 47.99102 10.24479 2067 ft 3 kts 236°
2026-04-30 21:27 47.99086 10.24444 2067 ft 5 kts 234°
2026-04-30 21:27 47.99060 10.24390 2067 ft 9 kts 234°
2026-04-30 21:28 47.98955 10.24152 2069 ft 18 kts 235°
2026-04-30 21:28 47.98890 10.23969 2073 ft 22 kts 240°
2026-04-30 21:28 47.98885 10.23725 2075 ft 11 kts 322°
2026-04-30 21:29 47.98907 10.23615 2073 ft 13 kts 253°
2026-04-30 21:29 47.98841 10.23338 2080 ft 7 kts 250°
2026-04-30 21:30 47.98839 10.23222 2079 ft 5 kts 334°
2026-04-30 21:31 47.98866 10.23234 2077 ft 0 kts 50°